Private Wetterstation Sandau
Wetterdaten: Donnerstag, 21.06.2012
Datum Zeit Temp. A. Feuchte A. Luftdruck Regen Wind Richtung Richtung Taupunkt Windchill
21.06.2012 00:01 14,4 C 89 % 1016,4 hPa 0,0 l/m 6,1 km/h (2 Bft) O-SO 112 12,6 C 14,4 C
21.06.2012 00:06 14,4 C 89 % 1016,4 hPa 0,0 l/m 16,9 km/h (3 Bft) O-NO 67 12,6 C 14,4 C
21.06.2012 00:11 14,4 C 89 % 1016,4 hPa 0,0 l/m 7,2 km/h (2 Bft) NO 45 12,6 C 14,4 C
21.06.2012 00:16 14,4 C 89 % 1016,3 hPa 0,0 l/m 5,0 km/h (1 Bft) O-NO 67 12,6 C 14,4 C
21.06.2012 00:21 14,3 C 89 % 1016,3 hPa 0,0 l/m 4,7 km/h (1 Bft) O-SO 112 12,5 C 14,3 C
21.06.2012 00:26 14,3 C 89 % 1016,1 hPa 0,0 l/m 3,6 km/h (1 Bft) O-NO 67 12,5 C 14,3 C
21.06.2012 00:31 14,3 C 89 % 1016,3 hPa 0,0 l/m 15,5 km/h (3 Bft) O-NO 67 12,5 C 14,3 C
21.06.2012 00:36 14,2 C 89 % 1016,3 hPa 0,0 l/m 5,4 km/h (1 Bft) O 90 12,4 C 14,2 C
21.06.2012 00:41 14,2 C 89 % 1016,2 hPa 0,0 l/m 6,5 km/h (2 Bft) O-NO 67 12,4 C 14,2 C
21.06.2012 00:46 14,2 C 89 % 1016,3 hPa 0,0 l/m 13,3 km/h (3 Bft) O-NO 67 12,4 C 14,2 C
21.06.2012 00:51 14,2 C 89 % 1016,3 hPa 0,0 l/m 7,6 km/h (2 Bft) O-SO 112 12,4 C 14,2 C
21.06.2012 00:56 14,1 C 89 % 1016,3 hPa 0,0 l/m 16,9 km/h (3 Bft) O 90 12,3 C 14,1 C
21.06.2012 01:01 14,1 C 89 % 1016,1 hPa 0,0 l/m 4,7 km/h (1 Bft) O 90 12,3 C 14,1 C
21.06.2012 01:06 14,1 C 89 % 1016,1 hPa 0,0 l/m 7,9 km/h (2 Bft) O-NO 67 12,3 C 14,1 C
21.06.2012 01:11 14,1 C 89 % 1015,8 hPa 0,0 l/m 7,2 km/h (2 Bft) O-NO 67 12,3 C 14,1 C
21.06.2012 01:16 14,1 C 89 % 1015,8 hPa 0,0 l/m 6,1 km/h (2 Bft) O-NO 67 12,3 C 14,1 C
21.06.2012 01:21 14,1 C 89 % 1015,8 hPa 0,0 l/m 5,8 km/h (2 Bft) O 90 12,3 C 14,1 C
21.06.2012 01:26 14,1 C 89 % 1015,7 hPa 0,0 l/m 8,3 km/h (2 Bft) O-SO 112 12,3 C 14,1 C
21.06.2012 01:31 14,1 C 89 % 1015,7 hPa 0,0 l/m 7,6 km/h (2 Bft) O 90 12,3 C 14,1 C
21.06.2012 01:36 14,1 C 89 % 1015,7 hPa 0,0 l/m 2,9 km/h (1 Bft) O-NO 67 12,3 C 14,1 C
21.06.2012 01:41 14,1 C 89 % 1015,7 hPa 0,0 l/m 5,8 km/h (2 Bft) N-NO 22 12,3 C 14,1 C
21.06.2012 01:46 14,1 C 89 % 1015,7 hPa 0,0 l/m 9,7 km/h (2 Bft) O 90 12,3 C 14,1 C
21.06.2012 01:51 14,1 C 89 % 1015,7 hPa 0,0 l/m 6,5 km/h (2 Bft) O 90 12,3 C 14,1 C
21.06.2012 01:56 14,1 C 89 % 1015,3 hPa 0,0 l/m 5,4 km/h (1 Bft) O-NO 67 12,3 C 14,1 C
21.06.2012 02:01 14,1 C 89 % 1015,4 hPa 0,0 l/m 11,5 km/h (2 Bft) O-NO 67 12,3 C 14,1 C
21.06.2012 02:06 14,1 C 89 % 1015,5 hPa 0,0 l/m 4,7 km/h (1 Bft) O-NO 67 12,3 C 14,1 C
21.06.2012 02:11 14,1 C 89 % 1015,5 hPa 0,0 l/m 4,7 km/h (1 Bft) NO 45 12,3 C 14,1 C
21.06.2012 02:16 14,1 C 89 % 1015,7 hPa 0,0 l/m 9,7 km/h (2 Bft) O-SO 112 12,3 C 14,1 C
21.06.2012 02:21 14,1 C 89 % 1015,5 hPa 0,0 l/m 3,2 km/h (1 Bft) O-NO 67 12,3 C 14,1 C
21.06.2012 02:26 14,1 C 89 % 1015,6 hPa 0,0 l/m 0,0 km/h (0 Bft) NO 45 12,3 C 14,1 C
21.06.2012 02:31 14,1 C 89 % 1015,6 hPa 0,0 l/m 2,2 km/h (1 Bft) NO 45 12,3 C 14,1 C
21.06.2012 02:36 14,1 C 89 % 1015,6 hPa 0,0 l/m 0,0 km/h (0 Bft) NO 45 12,3 C 14,1 C
21.06.2012 02:41 14,2 C 89 % 1015,7 hPa 0,0 l/m 1,4 km/h (1 Bft) O-NO 67 12,4 C 14,2 C
21.06.2012 02:46 14,2 C 89 % 1015,6 hPa 0,0 l/m 3,6 km/h (1 Bft) O-NO 67 12,4 C 14,2 C
21.06.2012 02:51 14,2 C 89 % 1015,4 hPa 0,0 l/m 5,0 km/h (1 Bft) O 90 12,4 C 14,2 C
21.06.2012 02:56 14,2 C 89 % 1015,3 hPa 0,0 l/m 0,0 km/h (0 Bft) O-SO 112 12,4 C 14,2 C
21.06.2012 03:01 14,2 C 89 % 1015,4 hPa 0,0 l/m 2,2 km/h (1 Bft) NO 45 12,4 C 14,2 C
21.06.2012 03:06 14,2 C 89 % 1015,2 hPa 0,0 l/m 4,7 km/h (1 Bft) O 90 12,4 C 14,2 C
21.06.2012 03:11 14,2 C 89 % 1015,3 hPa 0,0 l/m 4,0 km/h (1 Bft) O 90 12,4 C 14,2 C
21.06.2012 03:16 14,2 C 89 % 1015,3 hPa 0,0 l/m 4,0 km/h (1 Bft) O-NO 67 12,4 C 14,2 C
21.06.2012 03:21 14,2 C 89 % 1015,3 hPa 0,0 l/m 2,2 km/h (1 Bft) O-NO 67 12,4 C 14,2 C
21.06.2012 03:26 14,2 C 89 % 1015,2 hPa 0,0 l/m 4,3 km/h (1 Bft) O-NO 67 12,4 C 14,2 C
21.06.2012 03:31 14,2 C 90 % 1015,3 hPa 0,0 l/m 1,4 km/h (1 Bft) NO 45 12,6 C 14,2 C
21.06.2012 03:36 14,3 C 90 % 1015,3 hPa 0,0 l/m 5,0 km/h (1 Bft) NO 45 12,7 C 14,3 C
21.06.2012 03:41 14,3 C 90 % 1015,2 hPa 0,0 l/m 5,0 km/h (1 Bft) N-NO 22 12,7 C 14,3 C
21.06.2012 03:46 14,3 C 90 % 1015,1 hPa 0,0 l/m 7,6 km/h (2 Bft) N-NO 22 12,7 C 14,3 C
21.06.2012 03:51 14,3 C 90 % 1015,1 hPa 0,0 l/m 2,5 km/h (1 Bft) O 90 12,7 C 14,3 C
21.06.2012 03:56 14,4 C 90 % 1015,0 hPa 0,0 l/m 6,1 km/h (2 Bft) N-NO 22 12,8 C 14,4 C
21.06.2012 04:01 14,4 C 90 % 1015,1 hPa 0,0 l/m 4,0 km/h (1 Bft) NO 45 12,8 C 14,4 C
21.06.2012 04:06 14,4 C 90 % 1015,1 hPa 0,0 l/m 4,3 km/h (1 Bft) O 90 12,8 C 14,4 C
21.06.2012 04:11 14,4 C 90 % 1015,0 hPa 0,0 l/m 5,0 km/h (1 Bft) O-NO 67 12,8 C 14,4 C
21.06.2012 04:16 14,4 C 90 % 1014,9 hPa 0,0 l/m 6,5 km/h (2 Bft) O 90 12,8 C 14,4 C
21.06.2012 04:21 14,4 C 90 % 1014,8 hPa 0,0 l/m 3,6 km/h (1 Bft) NO 45 12,8 C 14,4 C
21.06.2012 04:26 14,4 C 90 % 1014,8 hPa 0,0 l/m 7,2 km/h (2 Bft) O 90 12,8 C 14,4 C
21.06.2012 04:31 14,4 C 90 % 1014,8 hPa 0,0 l/m 7,2 km/h (2 Bft) O-SO 112 12,8 C 14,4 C
21.06.2012 04:36 14,4 C 89 % 1014,8 hPa 0,0 l/m 4,0 km/h (1 Bft) NO 45 12,6 C 14,4 C
21.06.2012 04:41 14,4 C 89 % 1014,8 hPa 0,0 l/m 7,6 km/h (2 Bft) O 90 12,6 C 14,4 C
21.06.2012 04:46 14,4 C 89 % 1014,9 hPa 0,0 l/m 4,0 km/h (1 Bft) O-NO 67 12,6 C 14,4 C
21.06.2012 04:51 14,4 C 89 % 1014,8 hPa 0,0 l/m 4,0 km/h (1 Bft) O-NO 67 12,6 C 14,4 C
21.06.2012 04:56 14,4 C 89 % 1014,8 hPa 0,0 l/m 9,0 km/h (2 Bft) N-NO 22 12,6 C 14,4 C
21.06.2012 05:01 14,4 C 89 % 1014,9 hPa 0,0 l/m 3,2 km/h (1 Bft) O-NO 67 12,6 C 14,4 C
21.06.2012 05:06 14,4 C 89 % 1014,9 hPa 0,0 l/m 3,2 km/h (1 Bft) O-NO 67 12,6 C 14,4 C
21.06.2012 05:11 14,4 C 89 % 1014,9 hPa 0,0 l/m 7,2 km/h (2 Bft) O-NO 67 12,6 C 14,4 C
21.06.2012 05:16 14,4 C 88 % 1014,9 hPa 0,0 l/m 6,1 km/h (2 Bft) N-NO 22 12,4 C 14,4 C
21.06.2012 05:21 14,4 C 88 % 1014,9 hPa 0,0 l/m 2,9 km/h (1 Bft) O-NO 67 12,4 C 14,4 C
21.06.2012 05:26 14,4 C 88 % 1014,9 hPa 0,0 l/m 6,1 km/h (2 Bft) NO 45 12,4 C 14,4 C
21.06.2012 05:31 14,4 C 88 % 1014,7 hPa 0,0 l/m 2,9 km/h (1 Bft) O-SO 112 12,4 C 14,4 C
21.06.2012 05:36 14,3 C 88 % 1014,7 hPa 0,0 l/m 4,3 km/h (1 Bft) O-NO 67 12,3 C 14,3 C
21.06.2012 05:41 14,3 C 88 % 1014,6 hPa 0,0 l/m 6,5 km/h (2 Bft) O 90 12,3 C 14,3 C
21.06.2012 05:46 14,3 C 88 % 1014,8 hPa 0,0 l/m 1,4 km/h (1 Bft) NO 45 12,3 C 14,3 C
21.06.2012 05:51 14,3 C 88 % 1014,9 hPa 0,0 l/m 0,0 km/h (0 Bft) O-NO 67 12,3 C 14,3 C
21.06.2012 05:56 14,3 C 88 % 1014,9 hPa 0,0 l/m 2,5 km/h (1 Bft) O-NO 67 12,3 C 14,3 C
21.06.2012 06:01 14,3 C 88 % 1014,9 hPa 0,0 l/m 2,9 km/h (1 Bft) O-NO 67 12,3 C 14,3 C
21.06.2012 06:06 14,3 C 88 % 1014,9 hPa 0,0 l/m 2,5 km/h (1 Bft) O-NO 67 12,3 C 14,3 C
21.06.2012 06:11 14,3 C 88 % 1014,9 hPa 0,0 l/m 3,6 km/h (1 Bft) N-NO 22 12,3 C 14,3 C
21.06.2012 06:16 14,3 C 88 % 1014,8 hPa 0,0 l/m 6,5 km/h (2 Bft) O-NO 67 12,3 C 14,3 C
21.06.2012 06:21 14,3 C 88 % 1014,8 hPa 0,0 l/m 2,5 km/h (1 Bft) O-NO 67 12,3 C 14,3 C
21.06.2012 06:26 14,3 C 88 % 1014,8 hPa 0,0 l/m 7,9 km/h (2 Bft) O 90 12,3 C 14,3 C
21.06.2012 06:31 14,4 C 88 % 1014,8 hPa 0,0 l/m 6,5 km/h (2 Bft) NO 45 12,4 C 14,4 C
21.06.2012 06:36 14,4 C 88 % 1014,8 hPa 0,0 l/m 2,5 km/h (1 Bft) O-NO 67 12,4 C 14,4 C
21.06.2012 06:41 14,4 C 88 % 1014,8 hPa 0,0 l/m 5,0 km/h (1 Bft) N-NO 22 12,4 C 14,4 C
21.06.2012 06:46 14,4 C 88 % 1014,8 hPa 0,0 l/m 4,3 km/h (1 Bft) O-NO 67 12,4 C 14,4 C
21.06.2012 06:51 14,4 C 88 % 1014,9 hPa 0,0 l/m 8,6 km/h (2 Bft) NO 45 12,4 C 14,4 C
21.06.2012 06:56 14,4 C 88 % 1014,9 hPa 0,0 l/m 6,5 km/h (2 Bft) O-NO 67 12,4 C 14,4 C
21.06.2012 07:01 14,3 C 88 % 1014,9 hPa 0,0 l/m 8,3 km/h (2 Bft) NO 45 12,3 C 14,3 C
21.06.2012 07:06 14,4 C 88 % 1014,8 hPa 0,0 l/m 0,0 km/h (0 Bft) O-NO 67 12,4 C 14,4 C
21.06.2012 07:11 14,4 C 88 % 1014,7 hPa 0,0 l/m 3,6 km/h (1 Bft) N-NO 22 12,4 C 14,4 C
21.06.2012 07:16 14,4 C 88 % 1014,8 hPa 0,0 l/m 0,0 km/h (0 Bft) O-NO 67 12,4 C 14,4 C
21.06.2012 07:21 14,4 C 88 % 1014,8 hPa 0,0 l/m 1,8 km/h (1 Bft) N-NO 22 12,4 C 14,4 C
21.06.2012 07:26 14,4 C 88 % 1014,7 hPa 0,0 l/m 3,6 km/h (1 Bft) N-NO 22 12,4 C 14,4 C
21.06.2012 07:31 14,4 C 88 % 1014,6 hPa 0,0 l/m 1,8 km/h (1 Bft) NO 45 12,4 C 14,4 C
21.06.2012 07:36 14,5 C 88 % 1014,7 hPa 0,0 l/m 4,0 km/h (1 Bft) O-NO 67 12,5 C 14,5 C
21.06.2012 07:41 14,5 C 87 % 1014,7 hPa 0,0 l/m 4,3 km/h (1 Bft) NO 45 12,4 C 14,5 C
21.06.2012 07:46 14,5 C 87 % 1014,7 hPa 0,0 l/m 0,0 km/h (0 Bft) O 90 12,4 C 14,5 C
21.06.2012 07:51 14,5 C 86 % 1014,6 hPa 0,0 l/m 6,5 km/h (2 Bft) O-NO 67 12,2 C 14,5 C
21.06.2012 07:56 14,5 C 86 % 1014,7 hPa 0,0 l/m 7,9 km/h (2 Bft) N 360 12,2 C 14,5 C
21.06.2012 08:01 14,5 C 86 % 1014,7 hPa 0,0 l/m 9,7 km/h (2 Bft) O-NO 67 12,2 C 14,5 C
21.06.2012 08:06 14,6 C 86 % 1014,6 hPa 0,0 l/m 6,8 km/h (2 Bft) O-NO 67 12,3 C 14,6 C
21.06.2012 08:11 14,6 C 86 % 1014,6 hPa 0,0 l/m 6,5 km/h (2 Bft) O-NO 67 12,3 C 14,6 C
21.06.2012 08:16 14,6 C 86 % 1014,6 hPa 0,0 l/m 4,3 km/h (1 Bft) O 90 12,3 C 14,6 C
21.06.2012 08:21 14,7 C 86 % 1014,8 hPa 0,0 l/m 5,0 km/h (1 Bft) O-NO 67 12,4 C 14,7 C
21.06.2012 08:26 14,7 C 85 % 1014,7 hPa 0,0 l/m 6,1 km/h (2 Bft) O-NO 67 12,2 C 14,7 C
21.06.2012 08:31 14,7 C 85 % 1014,8 hPa 0,0 l/m 3,2 km/h (1 Bft) NO 45 12,2 C 14,7 C
21.06.2012 08:36 14,8 C 85 % 1014,9 hPa 0,0 l/m 3,2 km/h (1 Bft) O-SO 112 12,3 C 14,8 C
21.06.2012 08:41 14,8 C 85 % 1014,9 hPa 0,0 l/m 6,5 km/h (2 Bft) NO 45 12,3 C 14,8 C
21.06.2012 08:46 14,8 C 85 % 1014,9 hPa 0,0 l/m 3,6 km/h (1 Bft) O-NO 67 12,3 C 14,8 C
21.06.2012 08:51 14,8 C 84 % 1014,8 hPa 0,0 l/m 3,2 km/h (1 Bft) O-NO 67 12,1 C 14,8 C
21.06.2012 08:56 14,9 C 84 % 1014,8 hPa 0,0 l/m 4,0 km/h (1 Bft) O-NO 67 12,2 C 14,9 C
21.06.2012 09:01 14,9 C 84 % 1014,8 hPa 0,0 l/m 1,4 km/h (1 Bft) O-NO 67 12,2 C 14,9 C
21.06.2012 09:06 14,9 C 84 % 1014,8 hPa 0,0 l/m 5,0 km/h (1 Bft) O 90 12,2 C 14,9 C
21.06.2012 09:11 14,9 C 83 % 1014,9 hPa 0,0 l/m 4,7 km/h (1 Bft) N-NO 22 12,0 C 14,9 C
21.06.2012 09:16 14,9 C 83 % 1014,9 hPa 0,0 l/m 6,1 km/h (2 Bft) O-NO 67 12,0 C 14,9 C
21.06.2012 09:21 14,9 C 83 % 1014,8 hPa 0,0 l/m 4,0 km/h (1 Bft) NO 45 12,0 C 14,9 C
21.06.2012 09:26 14,9 C 83 % 1014,8 hPa 0,0 l/m 6,1 km/h (2 Bft) O 90 12,0 C 14,9 C
21.06.2012 09:31 14,9 C 83 % 1014,8 hPa 0,0 l/m 2,9 km/h (1 Bft) N-NO 22 12,0 C 14,9 C
21.06.2012 09:36 14,9 C 83 % 1014,9 hPa 0,0 l/m 7,6 km/h (2 Bft) O-SO 112 12,0 C 14,9 C
21.06.2012 09:41 14,9 C 83 % 1014,8 hPa 0,0 l/m 7,2 km/h (2 Bft) NO 45 12,0 C 14,9 C
21.06.2012 09:46 14,9 C 83 % 1014,8 hPa 0,0 l/m 6,1 km/h (2 Bft) O-NO 67 12,0 C 14,9 C
21.06.2012 09:51 14,9 C 83 % 1014,7 hPa 0,0 l/m 4,7 km/h (1 Bft) NO 45 12,0 C 14,9 C
21.06.2012 09:56 14,9 C 82 % 1014,7 hPa 0,0 l/m 9,4 km/h (2 Bft) N-NO 22 11,9 C 14,9 C
21.06.2012 10:01 14,9 C 82 % 1014,7 hPa 0,0 l/m 10,8 km/h (2 Bft) N-NO 22 11,9 C 14,9 C
21.06.2012 10:06 15,1 C 82 % 1014,7 hPa 0,0 l/m 5,0 km/h (1 Bft) O 90 12,0 C 15,1 C
21.06.2012 10:11 15,3 C 82 % 1014,6 hPa 0,0 l/m 14,8 km/h (3 Bft) NO 45 12,2 C 15,3 C
21.06.2012 10:16 15,4 C 82 % 1014,6 hPa 0,0 l/m 6,1 km/h (2 Bft) O 90 12,3 C 15,4 C
21.06.2012 10:21 15,5 C 82 % 1014,5 hPa 0,0 l/m 8,3 km/h (2 Bft) O-NO 67 12,4 C 15,5 C
21.06.2012 10:26 15,7 C 81 % 1014,6 hPa 0,0 l/m 14,0 km/h (3 Bft) NO 45 12,4 C 15,7 C
21.06.2012 10:31 15,9 C 81 % 1014,5 hPa 0,0 l/m 10,1 km/h (2 Bft) O-NO 67 12,6 C 15,9 C
21.06.2012 10:36 16,2 C 80 % 1014,5 hPa 0,0 l/m 8,3 km/h (2 Bft) O-NO 67 12,7 C 16,2 C
21.06.2012 10:41 16,3 C 79 % 1014,5 hPa 0,0 l/m 4,7 km/h (1 Bft) O-NO 67 12,6 C 16,3 C
21.06.2012 10:46 16,5 C 78 % 1014,4 hPa 0,0 l/m 6,1 km/h (2 Bft) NO 45 12,6 C 16,5 C
21.06.2012 10:51 16,7 C 78 % 1014,5 hPa 0,0 l/m 6,1 km/h (2 Bft) O 90 12,8 C 16,7 C
21.06.2012 10:56 17,1 C 77 % 1014,4 hPa 0,0 l/m 13,7 km/h (3 Bft) SO 135 13,0 C 17,1 C
21.06.2012 11:01 17,4 C 76 % 1014,3 hPa 0,0 l/m 8,6 km/h (2 Bft) NO 45 13,1 C 17,4 C
21.06.2012 11:06 17,5 C 75 % 1014,4 hPa 0,0 l/m 10,1 km/h (2 Bft) NO 45 13,0 C 17,5 C
21.06.2012 11:11 17,7 C 74 % 1014,5 hPa 0,0 l/m 4,7 km/h (1 Bft) O-SO 112 13,0 C 17,7 C
21.06.2012 11:16 17,8 C 73 % 1014,5 hPa 0,0 l/m 9,7 km/h (2 Bft) SO 135 12,9 C 17,8 C
21.06.2012 11:21 17,9 C 73 % 1014,5 hPa 0,0 l/m 12,6 km/h (3 Bft) NO 45 13,0 C 17,9 C
21.06.2012 11:26 17,9 C 72 % 1014,5 hPa 0,0 l/m 13,0 km/h (3 Bft) O-SO 112 12,8 C 17,9 C
21.06.2012 11:31 18,1 C 72 % 1014,5 hPa 0,0 l/m 22,7 km/h (4 Bft) O 90 13,0 C 18,1 C
21.06.2012 11:36 17,9 C 71 % 1014,5 hPa 0,0 l/m 8,6 km/h (2 Bft) O-SO 112 12,6 C 17,9 C
21.06.2012 11:41 17,8 C 72 % 1014,5 hPa 0,0 l/m 3,6 km/h (1 Bft) O 90 12,7 C 17,8 C
21.06.2012 11:46 17,8 C 72 % 1014,5 hPa 0,0 l/m 6,1 km/h (2 Bft) N 360 12,7 C 17,8 C
21.06.2012 11:51 17,6 C 72 % 1014,5 hPa 0,0 l/m 8,3 km/h (2 Bft) O 90 12,5 C 17,6 C
21.06.2012 11:56 17,6 C 73 % 1014,5 hPa 0,0 l/m 7,2 km/h (2 Bft) O 90 12,7 C 17,6 C
21.06.2012 12:01 17,8 C 72 % 1014,5 hPa 0,0 l/m 9,4 km/h (2 Bft) O-NO 67 12,7 C 17,8 C
21.06.2012 12:06 17,8 C 71 % 1014,6 hPa 0,0 l/m 8,6 km/h (2 Bft) O-NO 67 12,5 C 17,8 C
21.06.2012 12:11 17,4 C 71 % 1014,5 hPa 0,0 l/m 9,7 km/h (2 Bft) O-NO 67 12,1 C 17,4 C
21.06.2012 12:16 17,4 C 72 % 1014,6 hPa 0,0 l/m 10,8 km/h (2 Bft) O-NO 67 12,3 C 17,4 C
21.06.2012 12:21 17,3 C 73 % 1014,6 hPa 0,0 l/m 3,6 km/h (1 Bft) O-NO 67 12,4 C 17,3 C
21.06.2012 12:26 17,3 C 73 % 1014,6 hPa 0,0 l/m 7,6 km/h (2 Bft) O-NO 67 12,4 C 17,3 C
21.06.2012 12:31 17,1 C 73 % 1014,8 hPa 0,0 l/m 2,9 km/h (1 Bft) O-NO 67 12,2 C 17,1 C
21.06.2012 12:36 17,0 C 74 % 1014,7 hPa 0,0 l/m 2,5 km/h (1 Bft) O-SO 112 12,3 C 17,0 C
21.06.2012 12:41 16,9 C 74 % 1014,9 hPa 0,0 l/m 1,4 km/h (1 Bft) O 90 12,2 C 16,9 C
21.06.2012 12:46 16,9 C 75 % 1014,8 hPa 0,0 l/m 4,3 km/h (1 Bft) O 90 12,4 C 16,9 C
21.06.2012 12:51 16,8 C 75 % 1014,8 hPa 0,0 l/m 3,6 km/h (1 Bft) O 90 12,3 C 16,8 C
21.06.2012 12:56 16,8 C 75 % 1014,7 hPa 0,0 l/m 6,1 km/h (2 Bft) SO 135 12,3 C 16,8 C
21.06.2012 13:01 16,8 C 75 % 1014,8 hPa 0,0 l/m 5,0 km/h (1 Bft) O-SO 112 12,3 C 16,8 C
21.06.2012 13:06 16,8 C 75 % 1014,9 hPa 0,0 l/m 3,2 km/h (1 Bft) S-SO 157 12,3 C 16,8 C
21.06.2012 13:11 16,8 C 76 % 1014,9 hPa 0,0 l/m 2,9 km/h (1 Bft) SO 135 12,5 C 16,8 C
21.06.2012 13:16 16,8 C 76 % 1014,8 hPa 0,0 l/m 2,5 km/h (1 Bft) O 90 12,5 C 16,8 C
21.06.2012 13:21 16,7 C 76 % 1014,8 hPa 0,0 l/m 0,0 km/h (0 Bft) O-SO 112 12,4 C 16,7 C
21.06.2012 13:26 16,6 C 76 % 1014,6 hPa 0,0 l/m 2,2 km/h (1 Bft) S-SO 157 12,3 C 16,6 C
21.06.2012 13:31 16,6 C 77 % 1014,5 hPa 0,0 l/m 1,4 km/h (1 Bft) SO 135 12,5 C 16,6 C
21.06.2012 13:36 16,6 C 77 % 1014,3 hPa 0,0 l/m 3,2 km/h (1 Bft) O 90 12,5 C 16,6 C
21.06.2012 13:41 16,8 C 78 % 1014,2 hPa 0,0 l/m 10,4 km/h (2 Bft) O 90 12,9 C 16,8 C
21.06.2012 13:46 16,8 C 79 % 1014,1 hPa 0,0 l/m 4,3 km/h (1 Bft) O 90 13,1 C 16,8 C
21.06.2012 13:51 16,9 C 79 % 1013,9 hPa 0,0 l/m 9,4 km/h (2 Bft) O-NO 67 13,2 C 16,9 C
21.06.2012 13:56 17,0 C 79 % 1013,9 hPa 0,0 l/m 6,5 km/h (2 Bft) O-SO 112 13,3 C 17,0 C
21.06.2012 14:01 17,3 C 78 % 1013,8 hPa 0,0 l/m 13,0 km/h (3 Bft) O 90 13,4 C 17,3 C
21.06.2012 14:06 17,5 C 78 % 1013,8 hPa 0,0 l/m 10,8 km/h (2 Bft) O-NO 67 13,6 C 17,5 C
21.06.2012 14:11 17,6 C 78 % 1013,7 hPa 0,0 l/m 18,7 km/h (3 Bft) O-NO 67 13,7 C 17,6 C
21.06.2012 14:16 17,9 C 77 % 1013,5 hPa 0,0 l/m 11,2 km/h (2 Bft) O 90 13,8 C 17,9 C
21.06.2012 14:21 18,2 C 76 % 1013,5 hPa 0,0 l/m 12,2 km/h (2 Bft) O-NO 67 13,9 C 18,2 C
21.06.2012 14:26 18,4 C 75 % 1013,5 hPa 0,0 l/m 19,8 km/h (3 Bft) O-NO 67 13,9 C 18,4 C
21.06.2012 14:31 18,4 C 74 % 1013,6 hPa 0,0 l/m 13,0 km/h (3 Bft) O-SO 112 13,7 C 18,4 C
21.06.2012 14:36 18,5 C 74 % 1013,8 hPa 0,0 l/m 6,5 km/h (2 Bft) O 90 13,8 C 18,5 C
21.06.2012 14:41 18,4 C 73 % 1013,8 hPa 0,0 l/m 6,1 km/h (2 Bft) NO 45 13,5 C 18,4 C
21.06.2012 14:46 18,2 C 74 % 1014,0 hPa 0,0 l/m 5,8 km/h (2 Bft) O-NO 67 13,5 C 18,2 C
21.06.2012 14:51 18,1 C 74 % 1013,9 hPa 0,0 l/m 8,3 km/h (2 Bft) O-NO 67 13,4 C 18,1 C
21.06.2012 14:56 17,9 C 75 % 1013,8 hPa 0,0 l/m 2,9 km/h (1 Bft) O 90 13,4 C 17,9 C
21.06.2012 15:01 17,9 C 75 % 1013,8 hPa 0,0 l/m 5,0 km/h (1 Bft) O-NO 67 13,4 C 17,9 C
21.06.2012 15:06 17,8 C 75 % 1013,8 hPa 0,0 l/m 6,5 km/h (2 Bft) O-SO 112 13,3 C 17,8 C
21.06.2012 15:11 17,6 C 76 % 1013,8 hPa 0,0 l/m 2,9 km/h (1 Bft) O 90 13,3 C 17,6 C
21.06.2012 15:16 17,6 C 76 % 1014,0 hPa 0,0 l/m 4,7 km/h (1 Bft) O-NO 67 13,3 C 17,6 C
21.06.2012 15:21 17,6 C 76 % 1013,9 hPa 0,0 l/m 2,5 km/h (1 Bft) NO 45 13,3 C 17,6 C
21.06.2012 15:26 17,6 C 76 % 1013,8 hPa 0,0 l/m 4,7 km/h (1 Bft) O 90 13,3 C 17,6 C
21.06.2012 15:31 17,6 C 76 % 1013,8 hPa 0,0 l/m 6,5 km/h (2 Bft) O-NO 67 13,3 C 17,6 C
21.06.2012 15:36 17,6 C 76 % 1013,8 hPa 0,0 l/m 5,8 km/h (2 Bft) SO 135 13,3 C 17,6 C
21.06.2012 15:41 17,7 C 75 % 1013,8 hPa 0,0 l/m 2,5 km/h (1 Bft) O-NO 67 13,2 C 17,7 C
21.06.2012 15:46 17,6 C 76 % 1013,9 hPa 0,0 l/m 4,3 km/h (1 Bft) O-SO 112 13,3 C 17,6 C
21.06.2012 15:51 17,6 C 75 % 1013,9 hPa 0,0 l/m 7,2 km/h (2 Bft) S-SO 157 13,1 C 17,6 C
21.06.2012 15:56 17,6 C 76 % 1013,8 hPa 0,0 l/m 4,7 km/h (1 Bft) SO 135 13,3 C 17,6 C
21.06.2012 16:01 17,7 C 76 % 1013,7 hPa 0,0 l/m 2,9 km/h (1 Bft) O-SO 112 13,4 C 17,7 C
21.06.2012 16:06 17,8 C 76 % 1013,7 hPa 0,0 l/m 7,2 km/h (2 Bft) SO 135 13,5 C 17,8 C
21.06.2012 16:11 17,8 C 76 % 1013,7 hPa 0,0 l/m 2,2 km/h (1 Bft) SO 135 13,5 C 17,8 C
21.06.2012 16:16 17,8 C 76 % 1013,8 hPa 0,0 l/m 3,2 km/h (1 Bft) O-SO 112 13,5 C 17,8 C
21.06.2012 16:21 17,9 C 76 % 1013,8 hPa 0,0 l/m 6,8 km/h (2 Bft) O-NO 67 13,6 C 17,9 C
21.06.2012 16:26 17,8 C 75 % 1013,5 hPa 0,0 l/m 5,4 km/h (1 Bft) O-SO 112 13,3 C 17,8 C
21.06.2012 16:31 17,9 C 76 % 1013,5 hPa 0,0 l/m 7,6 km/h (2 Bft) O-SO 112 13,6 C 17,9 C
21.06.2012 16:36 17,9 C 76 % 1013,5 hPa 0,0 l/m 3,2 km/h (1 Bft) O-NO 67 13,6 C 17,9 C
21.06.2012 16:41 18,1 C 76 % 1013,5 hPa 0,0 l/m 2,5 km/h (1 Bft) SO 135 13,8 C 18,1 C
21.06.2012 16:46 18,2 C 76 % 1013,5 hPa 0,0 l/m 5,4 km/h (1 Bft) SO 135 13,9 C 18,2 C
21.06.2012 16:51 18,2 C 75 % 1013,5 hPa 0,0 l/m 3,6 km/h (1 Bft) O-NO 67 13,7 C 18,2 C
21.06.2012 16:56 18,2 C 75 % 1013,5 hPa 0,0 l/m 11,9 km/h (2 Bft) SO 135 13,7 C 18,2 C
21.06.2012 17:01 18,1 C 75 % 1013,5 hPa 0,0 l/m 0,0 km/h (0 Bft) O 90 13,6 C 18,1 C
21.06.2012 17:06 18,1 C 76 % 1013,4 hPa 0,0 l/m 0,0 km/h (0 Bft) S 180 13,8 C 18,1 C
21.06.2012 17:11 18,1 C 76 % 1013,5 hPa 0,0 l/m 2,5 km/h (1 Bft) SO 135 13,8 C 18,1 C
21.06.2012 17:16 17,9 C 76 % 1013,5 hPa 0,0 l/m 0,0 km/h (0 Bft) O 90 13,6 C 17,9 C
21.06.2012 17:21 17,9 C 76 % 1013,6 hPa 0,0 l/m 6,1 km/h (2 Bft) S 180 13,6 C 17,9 C
21.06.2012 17:26 17,9 C 77 % 1013,5 hPa 0,0 l/m 2,9 km/h (1 Bft) S 180 13,8 C 17,9 C
21.06.2012 17:31 17,8 C 77 % 1013,6 hPa 0,0 l/m 0,0 km/h (0 Bft) SO 135 13,7 C 17,8 C
21.06.2012 17:36 17,8 C 77 % 1013,5 hPa 0,0 l/m 0,0 km/h (0 Bft) S-SO 157 13,7 C 17,8 C
21.06.2012 17:41 17,8 C 77 % 1013,5 hPa 0,0 l/m 2,2 km/h (1 Bft) O-SO 112 13,7 C 17,8 C
21.06.2012 17:46 17,8 C 78 % 1013,5 hPa 0,0 l/m 1,4 km/h (1 Bft) O-SO 112 13,9 C 17,8 C
21.06.2012 17:51 17,6 C 78 % 1013,5 hPa 0,0 l/m 3,6 km/h (1 Bft) O 90 13,7 C 17,6 C
21.06.2012 17:56 17,6 C 78 % 1013,5 hPa 0,0 l/m 3,2 km/h (1 Bft) O-SO 112 13,7 C 17,6 C
21.06.2012 18:01 17,6 C 78 % 1013,4 hPa 0,0 l/m 4,0 km/h (1 Bft) SO 135 13,7 C 17,6 C
21.06.2012 18:06 17,4 C 78 % 1013,3 hPa 0,0 l/m 4,0 km/h (1 Bft) SO 135 13,5 C 17,4 C
21.06.2012 18:11 17,4 C 78 % 1013,4 hPa 0,0 l/m 0,0 km/h (0 Bft) O 90 13,5 C 17,4 C
21.06.2012 18:16 17,3 C 78 % 1013,3 hPa 0,0 l/m 2,9 km/h (1 Bft) O-SO 112 13,4 C 17,3 C
21.06.2012 18:21 17,3 C 78 % 1013,4 hPa 0,0 l/m 4,7 km/h (1 Bft) O-NO 67 13,4 C 17,3 C
21.06.2012 18:26 17,3 C 78 % 1013,2 hPa 0,0 l/m 3,2 km/h (1 Bft) O 90 13,4 C 17,3 C
21.06.2012 18:31 17,3 C 78 % 1013,1 hPa 0,0 l/m 5,4 km/h (1 Bft) O 90 13,4 C 17,3 C
21.06.2012 18:36 17,2 C 79 % 1013,2 hPa 0,0 l/m 1,1 km/h (1 Bft) O-SO 112 13,5 C 17,2 C
21.06.2012 18:41 17,2 C 79 % 1013,1 hPa 0,0 l/m 5,4 km/h (1 Bft) O-SO 112 13,5 C 17,2 C
21.06.2012 18:46 17,2 C 79 % 1013,2 hPa 0,0 l/m 3,2 km/h (1 Bft) S 180 13,5 C 17,2 C
21.06.2012 18:51 17,2 C 79 % 1013,2 hPa 0,0 l/m 1,1 km/h (1 Bft) O-SO 112 13,5 C 17,2 C
21.06.2012 18:56 17,2 C 79 % 1013,1 hPa 0,0 l/m 4,0 km/h (1 Bft) O 90 13,5 C 17,2 C
21.06.2012 19:01 17,2 C 80 % 1013,0 hPa 0,0 l/m 4,7 km/h (1 Bft) O-SO 112 13,7 C 17,2 C
21.06.2012 19:06 17,1 C 80 % 1013,0 hPa 0,0 l/m 6,1 km/h (2 Bft) O-SO 112 13,6 C 17,1 C
21.06.2012 19:11 17,1 C 80 % 1013,0 hPa 0,0 l/m 4,0 km/h (1 Bft) O-SO 112 13,6 C 17,1 C
21.06.2012 19:16 17,1 C 80 % 1013,0 hPa 0,0 l/m 7,9 km/h (2 Bft) SO 135 13,6 C 17,1 C
21.06.2012 19:21 17,1 C 80 % 1013,0 hPa 0,0 l/m 7,2 km/h (2 Bft) SO 135 13,6 C 17,1 C
21.06.2012 19:26 17,1 C 80 % 1013,0 hPa 0,0 l/m 2,9 km/h (1 Bft) O 90 13,6 C 17,1 C
21.06.2012 19:31 17,0 C 80 % 1013,1 hPa 0,0 l/m 4,0 km/h (1 Bft) O-SO 112 13,5 C 17,0 C
21.06.2012 19:36 16,9 C 80 % 1013,0 hPa 0,0 l/m 0,0 km/h (0 Bft) O-SO 112 13,4 C 16,9 C
21.06.2012 19:41 16,9 C 80 % 1013,0 hPa 0,0 l/m 6,1 km/h (2 Bft) SO 135 13,4 C 16,9 C
21.06.2012 19:46 16,9 C 81 % 1013,0 hPa 0,0 l/m 0,0 km/h (0 Bft) SO 135 13,6 C 16,9 C
21.06.2012 19:51 16,9 C 81 % 1013,0 hPa 0,0 l/m 0,0 km/h (0 Bft) SO 135 13,6 C 16,9 C
21.06.2012 19:56 16,9 C 81 % 1013,0 hPa 0,0 l/m 5,0 km/h (1 Bft) SO 135 13,6 C 16,9 C
21.06.2012 20:01 16,9 C 81 % 1012,9 hPa 0,0 l/m 0,0 km/h (0 Bft) SO 135 13,6 C 16,9 C
21.06.2012 20:06 16,9 C 82 % 1013,0 hPa 0,0 l/m 2,9 km/h (1 Bft) SO 135 13,8 C 16,9 C
21.06.2012 20:11 16,9 C 82 % 1013,0 hPa 0,0 l/m 2,5 km/h (1 Bft) SO 135 13,8 C 16,9 C
21.06.2012 20:16 16,9 C 82 % 1013,0 hPa 0,0 l/m 2,5 km/h (1 Bft) SO 135 13,8 C 16,9 C
21.06.2012 20:21 16,9 C 81 % 1012,9 hPa 0,0 l/m 4,3 km/h (1 Bft) SO 135 13,6 C 16,9 C
21.06.2012 20:26 16,8 C 81 % 1012,9 hPa 0,0 l/m 0,0 km/h (0 Bft) SO 135 13,5 C 16,8 C
21.06.2012 20:31 16,8 C 81 % 1013,0 hPa 0,0 l/m 2,2 km/h (1 Bft) SO 135 13,5 C 16,8 C
21.06.2012 20:36 16,8 C 82 % 1012,9 hPa 0,0 l/m 0,0 km/h (0 Bft) SO 135 13,7 C 16,8 C
21.06.2012 20:41 16,8 C 82 % 1012,9 hPa 0,0 l/m 3,6 km/h (1 Bft) O 90 13,7 C 16,8 C
21.06.2012 20:46 16,8 C 82 % 1012,9 hPa 0,0 l/m 0,0 km/h (0 Bft) SO 135 13,7 C 16,8 C
21.06.2012 20:51 16,8 C 82 % 1013,1 hPa 0,0 l/m 0,0 km/h (0 Bft) S 180 13,7 C 16,8 C
21.06.2012 20:56 16,8 C 82 % 1013,1 hPa 0,0 l/m 2,2 km/h (1 Bft) SO 135 13,7 C 16,8 C
21.06.2012 21:01 16,6 C 82 % 1012,9 hPa 0,0 l/m 0,0 km/h (0 Bft) O-SO 112 13,5 C 16,6 C
21.06.2012 21:06 16,6 C 82 % 1012,8 hPa 0,0 l/m 4,0 km/h (1 Bft) O-SO 112 13,5 C 16,6 C
21.06.2012 21:11 16,6 C 82 % 1012,8 hPa 0,0 l/m 0,0 km/h (0 Bft) O 90 13,5 C 16,6 C
21.06.2012 21:16 16,5 C 82 % 1012,7 hPa 0,0 l/m 4,0 km/h (1 Bft) O-SO 112 13,4 C 16,5 C
21.06.2012 21:21 16,4 C 83 % 1012,7 hPa 0,0 l/m 4,0 km/h (1 Bft) SO 135 13,5 C 16,4 C
21.06.2012 21:26 16,3 C 83 % 1012,6 hPa 0,0 l/m 2,2 km/h (1 Bft) S-SO 157 13,4 C 16,3 C
21.06.2012 21:31 16,3 C 83 % 1012,9 hPa 0,0 l/m 0,0 km/h (0 Bft) SO 135 13,4 C 16,3 C
21.06.2012 21:36 16,2 C 84 % 1012,9 hPa 0,0 l/m 4,0 km/h (1 Bft) O-SO 112 13,5 C 16,2 C
21.06.2012 21:41 16,2 C 84 % 1013,1 hPa 0,0 l/m 0,0 km/h (0 Bft) S-SO 157 13,5 C 16,2 C
21.06.2012 21:46 16,3 C 84 % 1012,9 hPa 0,0 l/m 3,2 km/h (1 Bft) S-SO 157 13,6 C 16,3 C
21.06.2012 21:51 16,3 C 84 % 1013,1 hPa 0,0 l/m 1,4 km/h (1 Bft) S-SO 157 13,6 C 16,3 C
21.06.2012 21:56 16,3 C 84 % 1013,1 hPa 0,0 l/m 1,4 km/h (1 Bft) S-SO 157 13,6 C 16,3 C
21.06.2012 22:01 16,3 C 84 % 1013,2 hPa 0,0 l/m 3,6 km/h (1 Bft) S-SO 157 13,6 C 16,3 C
21.06.2012 22:06 16,3 C 84 % 1013,1 hPa 0,0 l/m 3,6 km/h (1 Bft) S 180 13,6 C 16,3 C
21.06.2012 22:11 16,3 C 84 % 1013,0 hPa 0,0 l/m 0,0 km/h (0 Bft) O-SO 112 13,6 C 16,3 C
21.06.2012 22:16 16,3 C 84 % 1013,1 hPa 0,0 l/m 0,0 km/h (0 Bft) S-SO 157 13,6 C 16,3 C
21.06.2012 22:21 16,2 C 84 % 1013,0 hPa 0,0 l/m 3,6 km/h (1 Bft) S-SO 157 13,5 C 16,2 C
21.06.2012 22:26 16,2 C 84 % 1013,0 hPa 0,0 l/m 0,0 km/h (0 Bft) S-SO 157 13,5 C 16,2 C
21.06.2012 22:31 16,2 C 85 % 1013,0 hPa 0,0 l/m 1,1 km/h (1 Bft) SO 135 13,7 C 16,2 C
21.06.2012 22:36 16,2 C 85 % 1013,0 hPa 0,0 l/m 0,0 km/h (0 Bft) S-SO 157 13,7 C 16,2 C
21.06.2012 22:41 16,2 C 85 % 1013,0 hPa 0,0 l/m 2,5 km/h (1 Bft) SO 135 13,7 C 16,2 C
21.06.2012 22:46 16,1 C 85 % 1013,1 hPa 0,0 l/m 2,5 km/h (1 Bft) S 180 13,6 C 16,1 C
21.06.2012 22:51 16,1 C 85 % 1013,0 hPa 0,0 l/m 2,9 km/h (1 Bft) S-SO 157 13,6 C 16,1 C
21.06.2012 22:56 16,1 C 85 % 1013,2 hPa 0,0 l/m 2,9 km/h (1 Bft) SO 135 13,6 C 16,1 C
21.06.2012 23:01 16,1 C 85 % 1013,0 hPa 0,0 l/m 7,2 km/h (2 Bft) SO 135 13,6 C 16,1 C
21.06.2012 23:06 16,1 C 85 % 1013,2 hPa 0,0 l/m 0,0 km/h (0 Bft) O-SO 112 13,6 C 16,1 C
21.06.2012 23:11 16,1 C 85 % 1013,3 hPa 0,0 l/m 1,4 km/h (1 Bft) S 180 13,6 C 16,1 C
21.06.2012 23:16 16,1 C 85 % 1013,2 hPa 0,0 l/m 2,2 km/h (1 Bft) SO 135 13,6 C 16,1 C
21.06.2012 23:21 16,0 C 85 % 1013,3 hPa 0,0 l/m 1,4 km/h (1 Bft) SO 135 13,5 C 16,0 C
21.06.2012 23:26 15,9 C 85 % 1013,2 hPa 0,0 l/m 0,0 km/h (0 Bft) SO 135 13,4 C 15,9 C
21.06.2012 23:31 15,9 C 86 % 1013,3 hPa 0,0 l/m 0,0 km/h (0 Bft) O-SO 112 13,6 C 15,9 C
21.06.2012 23:36 15,9 C 86 % 1013,3 hPa 0,0 l/m 0,0 km/h (0 Bft) S-SO 157 13,6 C 15,9 C
21.06.2012 23:41 15,9 C 86 % 1013,5 hPa 0,0 l/m 0,0 km/h (0 Bft) S-SO 157 13,6 C 15,9 C
21.06.2012 23:46 15,9 C 86 % 1013,6 hPa 0,0 l/m 3,6 km/h (1 Bft) S-SO 157 13,6 C 15,9 C
21.06.2012 23:51 15,9 C 86 % 1013,4 hPa 0,0 l/m 2,5 km/h (1 Bft) S-SO 157 13,6 C 15,9 C
21.06.2012 23:56 15,9 C 86 % 1013,3 hPa 0,0 l/m 3,2 km/h (1 Bft) SO 135 13,6 C 15,9 C
_ Min-Zeit 00:56 11:36 21:26 - 02:26 - - 09:56 00:56
Minimum _ 14,1 C 71 % 1012,6 hPa - 0,0 km/h (0 Bft) - - 11,9 C 14,1 C
_ Max-Zeit 14:36 03:31 00:01 00:01 11:31 - - 17:46 14:36
Maximum _ 18,5 C 90 % 1016,4 hPa 0,0 l/m 22,7 km/h
O (4 Bft)
- - 13,9 C 18,5 C
Durchschnitt _ 16,0 C 82 % 1014,3 hPa #0,0 l/m 4,9 km/h (1 Bft) O-NO - 12,9 C 16,0 C
(c) by David Heller